Weather in Nosivka

Ukraine / Chernihiv Region     50°55′49″N   31°34′53″E
temp.,
°C
wind,
m/s
gust,
m/s
humid.,
%
clouds,
%
prec.,
mm/h
press.,
hPa
HPBL,
m
6 may, thu
thu600:00+12s71570100 0.0 1007645
03:00+10s71780100 0.5 1007692
06:00+8s715819 0.0 1005532
09:00+11ssw8137799 0.1 1006846
12:00+8wnw61189100 3.4 1009751
15:00+13w585975 3.6 10101790
18:00+14wsw385079 0.1 10102024
21:00+8w376052 0.1 1013129
7 may, fri
fri700:00+7sw2255100 0.0 101419
03:00+6sw337313 0.0 101434
06:00+5ssw34725 0.0 101463
09:00+11s595690 0.0 1014498
12:00+15s6853100 0.0 10131561
15:00+13ssw61068100 0.1 10121035
18:00+12s71475100 0.4 1009945
21:00+10s71490100 1.2 1008543
8 may, sat
sat800:00+10s41097100 5.6 1007543
03:00+10sw3798100 7.4 1006264
06:00+10w51191100 1.1 1006444
09:00+7w81180100 1.3 1010783
12:00+9wnw91160100 0.0 10121278
15:00+12w8114859 0.0 10122258
18:00+11nw695767 0.1 10141961
21:00+5wnw38710 0.1 1016158
9 may, sun
sun900:00+4wnw49755 0.0 1018174
03:00+3wnw411830 0.0 1019263
06:00+3wnw411865 0.0 1020299
09:00+8nw57700 0.0 1022765
12:00+12nw57506 0.0 10231852
15:00+13nnw57415 0.0 10242256
18:00+13n45494 0.0 10241590
21:00+7ne22581 0.0 102610
10 may, mon
mon1000:00+6se22665 0.0 102811
03:00+5se22663 0.0 102811
06:00+5se11680 0.0 102911
09:00+11ese23550 0.0 1029387
12:00+14ese22422 0.0 10291171
15:00+16e22360 0.0 10271492
18:00+15ene23460 0.0 10261336
21:00+10ene22620 0.0 102610